DT_LEITURA;HR_LEITURA;MED-PressaoAtm[hPa];VAL-TempExt[oC];VAL-UmidExt[%UR];VAL-TempInt[oC];VAL-UmidInt[%UR];Dir-Vento[grau];Vel-Vento[m/s];Precipitação[mm/h]
01/09/2026;00:00:00;1013,0;-36,4;1;28,6;72;328;0,5;0,0
01/09/2026;00:05:00;1013,0;-36,4;1;28,6;72;312;0,6;0,0
01/09/2026;00:10:00;1013,0;-36,4;1;28,6;72;276;0,5;0,0
01/09/2026;00:15:00;1012,9;-36,5;1;28,5;73;238;0,6;0,0
01/09/2026;00:20:00;1012,8;-36,5;1;28,5;73;294;0,5;0,0
01/09/2026;00:25:00;1012,7;-36,5;1;28,4;73;280;0,7;0,0
01/09/2026;00:30:00;1012,6;-36,5;1;28,4;73;274;0,6;0,0
01/09/2026;00:35:00;1012,5;-36,5;1;28,3;73;6;0,7;0,0
01/09/2026;00:40:00;1012,4;-36,5;1;28,3;73;342;0,5;0,0
01/09/2026;00:45:00;1012,3;-36,5;1;28,2;73;323;0,5;0,0
01/09/2026;00:50:00;1012,3;-36,5;1;28,2;73;288;0,4;0,0
01/09/2026;00:55:00;1012,3;-36,5;1;28,1;73;332;0,4;0,0
01/09/2026;01:00:00;1012,2;-36,5;1;28,1;74;257;0,5;0,0
01/09/2026;01:05:00;1012,1;-36,5;1;28,1;74;324;0,5;0,0
01/09/2026;01:10:00;1012,1;-36,5;1;28,0;74;307;0,4;0,0
01/09/2026;01:15:00;1012,1;-36,6;1;28,0;74;230;0,4;0,0
01/09/2026;01:20:00;1012,1;-36,6;1;27,9;74;39;0,5;0,0
01/09/2026;01:25:00;1012,1;-36,6;1;27,9;74;90;0,3;0,0
01/09/2026;01:30:00;1012,0;-36,6;1;27,9;74;147;0,3;0,0
01/09/2026;01:35:00;1011,9;-36,6;1;27,8;74;125;0,4;0,0
01/09/2026;01:40:00;1011,9;-36,6;1;27,8;74;89;0,4;0,0
01/09/2026;01:45:00;1011,8;-36,6;1;27,8;74;113;0,3;0,0
01/09/2026;01:50:00;1011,7;-36,6;1;27,8;74;70;0,3;0,0
01/09/2026;01:55:00;1011,7;-36,6;1;27,8;74;359;0,5;0,0
01/09/2026;02:00:00;1011,7;-36,6;1;27,8;74;285;0,4;0,0
01/09/2026;02:05:00;1011,6;-36,6;1;27,7;75;309;0,4;0,0
01/09/2026;02:10:00;1011,6;-36,6;1;27,7;75;339;0,5;0,0
01/09/2026;02:15:00;1011,6;-36,6;1;27,6;75;22;0,5;0,0
01/09/2026;02:20:00;1011,6;-36,6;1;27,6;75;16;0,5;0,0
01/09/2026;02:25:00;1011,6;-36,6;1;27,5;75;19;0,4;0,0
01/09/2026;02:30:00;1011,5;-36,6;1;27,5;75;318;0,3;0,0
01/09/2026;02:35:00;1011,4;-36,6;1;27,5;75;360;0,7;0,0
01/09/2026;02:40:00;1011,4;-36,6;1;27,5;76;329;0,4;0,0
01/09/2026;02:45:00;1011,4;-36,6;1;27,4;76;287;0,4;0,0
01/09/2026;02:50:00;1011,3;-36,7;1;27,4;76;2;0,4;0,0
01/09/2026;02:55:00;1011,2;-36,6;1;27,4;76;14;0,3;0,0
01/09/2026;03:00:00;1011,2;-36,6;1;27,3;76;349;0,4;0,0
01/09/2026;03:05:00;1011,1;-36,6;1;27,3;76;215;0,3;0,0
01/09/2026;03:10:00;1011,0;-36,7;1;27,3;76;321;0,4;0,0
01/09/2026;03:15:00;1010,9;-36,7;1;27,3;76;346;0,4;0,0
01/09/2026;03:20:00;1010,9;-36,7;1;27,2;76;333;0,4;0,0
01/09/2026;03:25:00;1010,8;-36,8;0;27,2;77;345;0,6;0,0
01/09/2026;03:30:00;1010,8;-36,8;0;27,1;77;309;0,5;0,0
01/09/2026;03:35:00;1010,7;-36,8;0;27,1;77;332;0,5;0,0
01/09/2026;03:40:00;1010,7;-36,8;0;27,0;77;340;0,6;0,0
01/09/2026;03:45:00;1010,6;-36,8;0;27,0;78;348;0,5;0,0
01/09/2026;03:50:00;1010,6;-36,8;0;26,9;78;74;0,4;0,0
01/09/2026;03:55:00;1010,6;-36,8;0;26,9;78;110;0,4;0,0
01/09/2026;04:00:00;1010,5;-36,9;0;26,9;78;307;0,6;0,0
01/09/2026;04:05:00;1010,6;-36,9;0;26,9;78;148;0,4;0,0
01/09/2026;04:10:00;1010,6;-36,9;0;26,8;78;314;0,5;0,0
01/09/2026;04:15:00;1010,6;-36,9;0;26,8;79;330;0,5;0,0
01/09/2026;04:20:00;1010,6;-36,9;0;26,8;79;203;0,5;0,0
01/09/2026;04:25:00;1010,6;-36,9;0;26,7;79;117;0,4;0,0
01/09/2026;04:30:00;1010,7;-36,9;0;26,7;79;312;0,5;0,0
01/09/2026;04:35:00;1010,7;-36,9;0;26,7;79;6;0,5;0,0
01/09/2026;04:40:00;1010,7;-36,9;0;26,6;79;281;0,5;0,0
01/09/2026;04:45:00;1010,7;-36,9;0;26,6;79;345;0,5;0,0
01/09/2026;04:50:00;1010,7;-37,0;0;26,6;79;311;0,3;0,0
01/09/2026;04:55:00;1010,8;-37,0;0;26,5;80;69;0,4;0,0
01/09/2026;05:00:00;1010,8;-37,0;0;26,5;80;31;0,4;0,0
01/09/2026;05:05:00;1010,8;-37,1;0;26,5;80;1;0,4;0,0
01/09/2026;05:10:00;1010,9;-37,1;0;26,5;80;64;0,3;0,0
01/09/2026;05:15:00;1011,0;-37,1;0;26,5;80;16;0,4;0,0
01/09/2026;05:20:00;1011,0;-37,1;0;26,4;80;66;0,3;0,0
01/09/2026;05:25:00;1011,1;-37,1;0;26,4;80;32;0,5;0,0
01/09/2026;05:30:00;1011,2;-37,1;0;26,4;80;321;0,5;0,0
01/09/2026;05:35:00;1011,1;-37,1;0;26,4;80;359;0,6;0,0
01/09/2026;05:40:00;1011,1;-37,1;0;26,3;80;19;0,5;0,0
01/09/2026;05:45:00;1011,2;-37,1;0;26,3;80;341;0,6;0,0
01/09/2026;05:50:00;1011,2;-37,1;0;26,3;81;25;0,3;0,0
01/09/2026;05:55:00;1011,2;-37,1;0;26,2;81;4;0,5;0,0
01/09/2026;06:00:00;1011,2;-37,1;0;26,2;81;80;0,3;0,0
01/09/2026;06:05:00;1011,2;-37,1;0;26,2;81;10;0,4;0,0
01/09/2026;06:10:00;1011,2;-37,1;0;26,2;81;15;0,6;0,0
01/09/2026;06:15:00;1011,2;-37,1;0;26,1;81;355;0,5;0,0
01/09/2026;06:20:00;1011,3;-37,1;0;26,1;81;35;0,5;0,0
01/09/2026;06:25:00;1011,3;-37,1;0;26,1;81;46;0,5;0,0
01/09/2026;06:30:00;1011,3;-37,1;0;26,0;81;18;0,5;0,0
01/09/2026;06:35:00;1011,4;-37,1;0;26,0;81;78;0,2;0,0
01/09/2026;06:40:00;1011,5;-37,1;0;26,0;81;352;0,5;0,0
01/09/2026;06:45:00;1011,5;-37,1;0;26,0;81;65;0,5;0,0
01/09/2026;06:50:00;1011,6;-37,1;0;26,0;82;123;0,5;0,0
01/09/2026;06:55:00;1011,7;-37,1;0;26,1;81;42;0,5;0,0
01/09/2026;07:00:00;1011,7;-37,1;0;26,1;81;68;0,4;0,0
01/09/2026;07:05:00;1011,8;-37,1;0;26,2;81;175;0,4;0,0
01/09/2026;07:10:00;1011,9;-37,1;0;26,2;81;327;0,5;0,0
01/09/2026;07:15:00;1011,9;-37,1;0;26,3;81;342;0,4;0,0
01/09/2026;07:20:00;1011,9;-37,1;0;26,3;81;34;0,4;0,0
01/09/2026;07:25:00;1012,0;-37,1;0;26,4;81;5;0,5;0,0
01/09/2026;07:30:00;1012,1;-37,1;0;26,5;80;353;0,7;0,0
01/09/2026;07:35:00;1012,2;-37,0;0;26,6;80;42;0,4;0,0
01/09/2026;07:40:00;1012,3;-37,0;0;26,7;80;345;0,6;0,0
01/09/2026;07:45:00;1012,3;-36,9;0;26,8;80;2;0,7;0,0
01/09/2026;07:50:00;1012,4;-36,9;0;26,9;79;349;0,6;0,0
01/09/2026;07:55:00;1012,5;-36,9;0;27,0;79;348;0,5;0,0
01/09/2026;08:00:00;1012,6;-36,8;0;27,1;79;321;0,5;0,0
01/09/2026;08:05:00;1012,7;-36,8;0;27,2;78;341;0,5;0,0
01/09/2026;08:10:00;1012,7;-36,8;0;27,4;78;352;0,5;0,0
01/09/2026;08:15:00;1012,8;-36,8;0;27,5;77;3;0,5;0,0
01/09/2026;08:20:00;1012,9;-36,8;0;27,7;77;330;0,4;0,0
01/09/2026;08:25:00;1012,9;-36,7;0;27,9;77;315;0,5;0,0
01/09/2026;08:30:00;1013,0;-36,7;0;28,1;76;322;0,5;0,0
01/09/2026;08:35:00;1013,0;-36,6;0;28,2;75;323;0,6;0,0
01/09/2026;08:40:00;1013,1;-36,6;0;28,4;74;7;0,5;0,0
01/09/2026;08:45:00;1013,2;-36,5;0;28,6;74;322;0,6;0,0
01/09/2026;08:50:00;1013,3;-36,5;0;28,7;73;2;0,7;0,0
01/09/2026;08:55:00;1013,3;-36,4;0;28,9;73;329;0,6;0,0
01/09/2026;09:00:00;1013,4;-36,2;0;29,2;72;307;0,6;0,0
01/09/2026;09:05:00;1013,4;-35,9;0;29,4;72;37;0,6;0,0
01/09/2026;09:10:00;1013,5;-35,5;0;29,6;71;111;1,1;0,0
01/09/2026;09:15:00;1013,6;-34,8;0;29,9;70;60;0,7;0,0
01/09/2026;09:20:00;1013,6;-34,3;0;30,2;69;297;0,5;0,0
01/09/2026;09:25:00;1013,6;-33,7;0;30,5;68;168;0,7;0,0
01/09/2026;09:30:00;1013,6;-33,3;0;30,9;67;112;0,7;0,0
01/09/2026;09:35:00;1013,7;-33,3;0;31,0;66;198;0,7;0,0
01/09/2026;09:40:00;1013,7;-33,5;0;31,1;66;307;0,5;0,0
01/09/2026;09:45:00;1013,8;-34,1;0;31,4;65;233;0,6;0,0
01/09/2026;09:50:00;1013,8;-34,9;0;31,7;65;196;0,8;0,0
01/09/2026;09:55:00;1013,7;-36,2;0;32,1;62;291;0,6;0,0
01/09/2026;10:00:00;1013,7;-37,4;0;32,5;60;321;0,6;0,0
01/09/2026;10:05:00;1013,7;-38,1;0;33,1;58;111;0,6;0,0
01/09/2026;10:10:00;1013,7;-38,6;0;33,7;56;169;0,9;0,0
01/09/2026;10:15:00;1013,7;-38,8;0;34,2;55;149;1,1;0,0
01/09/2026;10:20:00;1013,7;-38,9;0;34,7;53;140;2,0;0,0
01/09/2026;10:25:00;1013,7;-39,0;0;35,0;52;144;1,6;0,0
01/09/2026;10:30:00;1013,7;-39,1;0;35,2;51;128;2,0;0,0
01/09/2026;10:35:00;1013,7;-39,1;0;35,3;50;139;1,4;0,0
01/09/2026;10:40:00;1013,8;-39,2;0;35,5;50;137;2,0;0,0
01/09/2026;10:45:00;1013,8;-39,1;0;35,6;50;130;1,8;0,0
01/09/2026;10:50:00;1013,8;-39,1;0;35,8;49;154;1,4;0,0
01/09/2026;10:55:00;1013,8;-39,2;0;35,8;49;141;1,2;0,0
01/09/2026;11:00:00;1013,8;-39,2;0;35,5;50;164;1,5;0,0
01/09/2026;11:05:00;1013,8;-39,2;0;35,1;51;181;1,3;0,0
01/09/2026;11:10:00;1013,9;-39,2;0;34,9;52;165;1,5;0,0
01/09/2026;11:15:00;1013,9;-39,2;0;34,9;51;132;1,5;0,0
01/09/2026;11:20:00;1013,9;-39,2;0;35,2;50;150;1,5;0,0
01/09/2026;11:25:00;1013,9;-39,2;0;35,4;49;128;1,7;0,0
01/09/2026;11:30:00;1013,9;-39,2;0;35,6;49;133;1,8;0,0
01/09/2026;11:35:00;1013,9;-39,1;0;35,6;49;161;1,0;0,0
01/09/2026;11:40:00;1013,8;-39,2;0;35,8;49;170;1,3;0,0
01/09/2026;11:45:00;1013,8;-39,1;0;35,7;49;162;1,3;0,0
01/09/2026;11:50:00;1013,7;-39,2;0;35,7;49;148;1,2;0,0
01/09/2026;11:55:00;1013,7;-39,1;0;35,9;48;139;1,8;0,0
01/09/2026;12:00:00;1013,6;-39,2;0;36,1;47;131;2,1;0,0
01/09/2026;12:05:00;1013,6;-39,2;0;36,2;47;151;1,5;0,0
01/09/2026;12:10:00;1013,5;-39,2;0;36,2;46;177;1,4;0,0
01/09/2026;12:15:00;1013,4;-39,2;0;36,4;46;166;1,1;0,0
01/09/2026;12:20:00;1013,3;-39,2;0;36,5;47;213;1,2;0,0
01/09/2026;12:25:00;1013,2;-39,2;0;36,7;46;153;1,2;0,0
01/09/2026;12:30:00;1013,2;-39,2;0;37,0;45;150;1,6;0,0
01/09/2026;12:35:00;1013,1;-39,2;0;37,2;44;176;1,2;0,0
01/09/2026;12:40:00;1013,1;-39,2;0;37,3;43;137;1,9;0,0
01/09/2026;12:45:00;1013,0;-39,2;0;37,3;43;148;1,7;0,0
01/09/2026;12:50:00;1012,9;-39,2;0;37,3;43;132;1,4;0,0
01/09/2026;12:55:00;1012,8;-39,2;0;37,3;44;178;1,1;0,0
01/09/2026;13:00:00;1012,7;-39,2;0;37,6;44;142;1,4;0,0
01/09/2026;13:05:00;1012,7;-39,2;0;37,9;43;147;1,8;0,0
01/09/2026;13:10:00;1012,6;-39,2;0;38,1;42;133;1,4;0,0
01/09/2026;13:15:00;1012,5;-39,2;0;38,2;41;143;1,4;0,0
01/09/2026;13:20:00;1012,4;-39,2;0;38,4;42;145;1,5;0,0
01/09/2026;13:25:00;1012,4;-39,2;0;38,6;41;142;1,8;0,0
01/09/2026;13:30:00;1012,4;-39,1;0;38,6;40;135;1,8;0,0
01/09/2026;13:35:00;1012,3;-39,2;0;38,8;41;141;1,7;0,0
01/09/2026;13:40:00;1012,3;-39,2;0;38,9;39;130;1,7;0,0
01/09/2026;13:45:00;1012,2;-39,2;0;39,0;40;133;1,4;0,0
01/09/2026;13:50:00;1012,1;-39,2;0;39,3;41;139;1,7;0,0
01/09/2026;13:55:00;1012,1;-39,2;0;39,4;40;135;1,9;0,0
01/09/2026;14:00:00;1012,1;-39,2;0;39,5;39;136;1,8;0,0
01/09/2026;14:05:00;1012,1;-39,2;0;39,4;39;132;2,3;0,0
01/09/2026;14:10:00;1012,0;-39,2;0;39,1;40;130;1,5;0,0
01/09/2026;14:15:00;1012,0;-39,2;0;39,1;39;132;2,1;0,0
01/09/2026;14:20:00;1011,9;-39,2;0;39,1;40;140;2,0;0,0
01/09/2026;14:25:00;1011,9;-39,2;0;39,3;41;144;1,3;0,0
01/09/2026;14:30:00;1011,8;-39,2;0;39,6;40;148;1,4;0,0
01/09/2026;14:35:00;1011,7;-39,2;0;39,7;39;147;1,9;0,0
01/09/2026;14:40:00;1011,7;-39,2;0;39,8;38;131;2,0;0,0
01/09/2026;14:45:00;1011,7;-39,2;0;39,8;38;140;2,0;0,0
01/09/2026;14:50:00;1011,7;-39,2;0;39,8;38;146;1,7;0,0
01/09/2026;14:55:00;1011,6;-39,2;0;39,8;38;148;1,3;0,0
01/09/2026;15:00:00;1011,6;-39,2;0;40,0;38;146;1,3;0,0
01/09/2026;15:05:00;1011,6;-39,2;0;40,0;38;142;1,5;0,0
01/09/2026;15:10:00;1011,6;-39,2;0;39,9;37;121;1,6;0,0
01/09/2026;15:15:00;1011,5;-39,2;0;39,7;38;145;1,7;0,0
01/09/2026;15:20:00;1011,4;-39,2;0;39,7;39;145;1,3;0,0
01/09/2026;15:25:00;1011,4;-39,2;0;39,8;38;134;1,6;0,0
01/09/2026;15:30:00;1011,3;-39,2;0;39,8;38;129;1,4;0,0
01/09/2026;15:35:00;1011,3;-39,2;0;39,9;38;138;1,6;0,0
01/09/2026;15:40:00;1011,3;-39,2;0;39,8;37;155;1,4;0,0
01/09/2026;15:45:00;1011,2;-39,2;0;39,7;38;145;1,4;0,0
01/09/2026;15:50:00;1011,2;-39,2;0;39,6;38;136;1,7;0,0
01/09/2026;15:55:00;1011,1;-39,2;0;39,4;38;127;1,8;0,0
01/09/2026;16:00:00;1011,1;-39,2;0;39,2;39;131;1,7;0,0
01/09/2026;16:05:00;1011,0;-39,2;0;38,9;39;126;1,5;0,0
01/09/2026;16:10:00;1011,0;-39,2;0;38,7;40;128;2,0;0,0
01/09/2026;16:15:00;1011,0;-39,2;0;38,2;41;131;1,5;0,0
01/09/2026;16:20:00;1010,9;-39,2;0;37,7;43;132;1,7;0,0
01/09/2026;16:25:00;1010,9;-39,2;0;37,2;43;126;1,6;0,0
01/09/2026;16:30:00;1010,9;-39,2;0;36,7;45;132;1,8;0,0
01/09/2026;16:35:00;1010,9;-39,2;0;36,3;46;143;1,5;0,0
01/09/2026;16:40:00;1010,9;-39,2;0;36,0;47;132;1,6;0,0
01/09/2026;16:45:00;1010,8;-39,2;0;35,7;47;143;1,8;0,0
01/09/2026;16:50:00;1010,8;-39,2;0;35,5;48;170;1,0;0,0
01/09/2026;16:55:00;1010,8;-39,2;0;35,3;49;154;1,2;0,0
01/09/2026;17:00:00;1010,8;-39,1;0;35,1;49;139;1,3;0,0
01/09/2026;17:05:00;1010,8;-39,1;0;34,9;50;172;1,4;0,0
01/09/2026;17:10:00;1010,8;-39,1;0;34,7;50;160;1,2;0,0
01/09/2026;17:15:00;1010,8;-39,1;0;34,5;51;119;1,9;0,0
01/09/2026;17:20:00;1010,8;-39,1;0;34,3;51;132;1,5;0,0
01/09/2026;17:25:00;1010,8;-39,1;0;34,2;52;132;1,5;0,0
01/09/2026;17:30:00;1010,8;-39,1;0;34,0;52;132;1,5;0,0
01/09/2026;17:35:00;1010,8;-39,0;0;33,9;53;134;1,7;0,0
01/09/2026;17:40:00;1010,8;-39,0;0;33,7;53;135;1,3;0,0
01/09/2026;17:45:00;1010,9;-39,0;0;33,5;54;155;1,3;0,0
01/09/2026;17:50:00;1010,9;-39,0;0;33,4;54;154;1,2;0,0
01/09/2026;17:55:00;1010,9;-39,0;0;33,3;55;188;1,2;0,0
01/09/2026;18:00:00;1011,0;-38,9;0;33,2;55;150;1,2;0,0
01/09/2026;18:05:00;1011,0;-38,9;0;33,0;55;175;1,3;0,0
01/09/2026;18:10:00;1011,0;-38,9;0;32,9;55;160;1,3;0,0
01/09/2026;18:15:00;1011,0;-38,9;0;32,8;56;157;1,3;0,0
01/09/2026;18:20:00;1011,1;-38,8;0;32,6;56;143;1,4;0,0
01/09/2026;18:25:00;1011,1;-38,8;0;32,5;57;150;1,2;0,0
01/09/2026;18:30:00;1011,1;-38,7;0;32,4;57;147;1,3;0,0
01/09/2026;18:35:00;1011,2;-38,7;0;32,3;58;139;1,1;0,0
01/09/2026;18:40:00;1011,2;-38,6;0;32,1;59;137;0,9;0,0
01/09/2026;18:45:00;1011,3;-38,6;0;32,1;59;164;1,1;0,0
01/09/2026;18:50:00;1011,3;-38,5;0;32,0;60;152;1,3;0,0
01/09/2026;18:55:00;1011,4;-38,3;0;31,9;60;156;1,3;0,0
01/09/2026;19:00:00;1011,4;-38,3;0;31,8;61;187;0,9;0,0
01/09/2026;19:05:00;1011,5;-38,2;0;31,7;61;168;1,0;0,0
01/09/2026;19:10:00;1011,5;-38,1;0;31,6;61;171;1,2;0,0
01/09/2026;19:15:00;1011,6;-38,1;0;31,5;61;175;0,9;0,0
01/09/2026;19:20:00;1011,6;-38,0;0;31,5;62;156;1,0;0,0
01/09/2026;19:25:00;1011,7;-37,9;0;31,4;62;197;0,8;0,0
01/09/2026;19:30:00;1011,7;-37,7;0;31,4;62;213;0,7;0,0
01/09/2026;19:35:00;1011,8;-37,7;0;31,4;62;179;0,4;0,0
01/09/2026;19:40:00;1011,9;-37,7;0;31,4;62;168;0,7;0,0
01/09/2026;19:45:00;1011,9;-37,6;0;31,3;63;236;0,5;0,0
01/09/2026;19:50:00;1012,0;-37,5;0;31,3;63;307;0,4;0,0
01/09/2026;19:55:00;1012,0;-37,5;0;31,3;63;254;0,5;0,0
01/09/2026;20:00:00;1012,0;-37,4;0;31,2;63;320;0,5;0,0
01/09/2026;20:05:00;1012,0;-37,3;0;31,1;63;272;0,5;0,0
01/09/2026;20:10:00;1011,9;-37,2;0;31,0;63;240;0,3;0,0
01/09/2026;20:15:00;1012,0;-36,9;0;31,0;63;322;0,4;0,0
01/09/2026;20:20:00;1012,1;-36,9;0;30,9;64;172;0,5;0,0
01/09/2026;20:25:00;1012,1;-36,8;0;30,9;64;177;0,6;0,0
01/09/2026;20:30:00;1012,2;-36,7;0;30,8;64;155;0,7;0,0
01/09/2026;20:35:00;1012,2;-36,6;0;30,7;64;170;0,8;0,0
01/09/2026;20:40:00;1012,3;-36,5;0;30,6;65;156;0,6;0,0
01/09/2026;20:45:00;1012,4;-36,4;0;30,5;64;166;0,5;0,0
01/09/2026;20:50:00;1012,5;-36,4;0;30,5;65;184;0,7;0,0
01/09/2026;20:55:00;1012,5;-36,3;0;30,5;65;211;0,6;0,0
01/09/2026;21:00:00;1012,6;-36,2;0;30,4;65;244;0,4;0,0
01/09/2026;21:05:00;1012,6;-36,1;0;30,4;65;210;0,4;0,0
01/09/2026;21:10:00;1012,7;-36,1;0;30,4;65;166;0,6;0,0
01/09/2026;21:15:00;1012,7;-36,0;0;30,4;65;189;0,7;0,0
01/09/2026;21:20:00;1012,7;-36,0;0;30,3;66;269;0,3;0,0
01/09/2026;21:25:00;1012,7;-36,0;0;30,3;65;306;0,3;0,0
01/09/2026;21:30:00;1012,8;-35,9;0;30,2;65;359;0,4;0,0
01/09/2026;21:35:00;1013,0;-35,9;0;30,2;66;151;0,4;0,0
01/09/2026;21:40:00;1013,1;-35,9;0;30,1;66;152;0,6;0,0
01/09/2026;21:45:00;1013,1;-35,8;0;30,1;67;171;0,5;0,0
01/09/2026;21:50:00;1013,1;-35,8;0;30,1;67;151;0,3;0,0
01/09/2026;21:55:00;1013,1;-35,8;0;30,0;67;72;0,3;0,0
01/09/2026;22:00:00;1013,2;-35,7;0;30,0;67;155;0,4;0,0
01/09/2026;22:05:00;1013,2;-35,8;0;30,0;67;143;0,4;0,0
01/09/2026;22:10:00;1013,3;-35,7;0;30,0;67;137;0,3;0,0
01/09/2026;22:15:00;1013,4;-35,7;0;29,9;67;163;0,2;0,0
01/09/2026;22:20:00;1013,4;-35,7;0;29,9;67;97;0,2;0,0
01/09/2026;22:25:00;1013,4;-35,7;0;29,9;67;306;0,2;0,0
01/09/2026;22:30:00;1013,5;-35,6;0;29,9;67;10;0,3;0,0
01/09/2026;22:35:00;1013,5;-35,6;0;29,9;67;4;0,4;0,0
01/09/2026;22:40:00;1013,4;-35,7;0;29,8;68;323;0,4;0,0
01/09/2026;22:45:00;1013,4;-35,7;0;29,8;68;358;0,3;0,0
01/09/2026;22:50:00;1013,4;-35,7;0;29,7;68;317;0,3;0,0
01/09/2026;22:55:00;1013,4;-35,7;0;29,7;68;280;0,3;0,0
01/09/2026;23:00:00;1013,4;-35,7;0;29,7;68;321;0,3;0,0
01/09/2026;23:05:00;1013,4;-35,7;0;29,7;68;285;0,4;0,0
01/09/2026;23:10:00;1013,4;-35,7;0;29,6;69;2;0,3;0,0
01/09/2026;23:15:00;1013,4;-35,8;0;29,6;69;339;0,4;0,0
01/09/2026;23:20:00;1013,5;-35,8;0;29,6;69;325;0,5;0,0
01/09/2026;23:25:00;1013,5;-35,8;0;29,5;70;335;0,4;0,0
01/09/2026;23:30:00;1013,4;-35,8;0;29,5;70;12;0,5;0,0
01/09/2026;23:35:00;1013,3;-35,9;0;29,4;71;341;0,6;0,0
01/09/2026;23:40:00;1013,2;-36,0;0;29,4;71;347;0,6;0,0
01/09/2026;23:45:00;1013,2;-36,0;0;29,3;72;336;0,6;0,0
01/09/2026;23:50:00;1013,2;-36,1;0;29,2;72;320;0,6;0,0
01/09/2026;23:55:00;1013,2;-36,1;0;29,2;72;296;0,5;0,0
